Torna al catalogo

ARIANE 1 DEB

AttivoHEO
NORAD 48343·DEBRIS·🇪🇺 EU

Lanciato Jun 19, 1981 da Guiana Space Centre

Loading…

Prossimi Passaggi (prossime 24 ore)

TLE

AggiornatoSource: Space-Track

Epoca: Sep 14, 2026, 10:59 UTC

1 48343U 81057G   26257.45812550 -.00000131  00000-0 -16144-3 0  9991
2 48343  11.0152 285.4480 6664834  99.8528 352.8883  2.87679488132904

Traccia ARIANE 1 DEB in tempo reale con AllMySat

Download on the App Store